EW2175 Weather Reports


time (UTC)temp
C
wind
direction
speed
KPH
gust
KPH
rain 1hr
cm
rain 24hr
cm
rain mn
cm
humidity
%
barometer
mb
20260506044507 12 195 1.6 8.0 0.00 0.08 0.00 82 1005.1
20260506043008 12 200 3.2 9.7 0.00 0.08 0.00 81 1005.2
20260506041505 12 217 3.2 8.0 0.00 0.08 0.00 80 1005.2
20260506040002 12 224 0.0 12.9 0.00 0.08 0.00 79 1005.3
20260506034604 12 191 6.4 17.7 0.00 0.08 0.00 79 1005.4
20260506033100 12 184 3.2 11.3 0.00 0.08 0.00 78 1005.4
20260506031601 12 199 0.0 3.2 0.00 0.08 0.00 77 1005.4
20260506030059 12 200 0.0 6.4 0.00 0.08 0.00 77 1005.6
20260506024601 12 186 3.2 8.0 0.00 0.08 0.00 77 1005.8
20260506023054 12 200 0.0 6.4 0.00 0.08 0.00 77 1005.8
20260506021552 12 196 1.6 6.4 0.00 0.08 0.00 79 1005.9
20260506020106 11 171 1.6 9.7 0.00 0.08 0.00 81 1006.1
20260506014607 11 80 0.0 3.2 0.00 0.08 0.00 84 1006.2
20260506013050 11 80 0.0 0.0 0.00 0.08 0.00 85 1006.5
20260506011611 11 80 0.0 4.8 0.00 0.08 0.00 85 1006.6
20260506010048 11 80 0.0 6.4 0.00 0.08 0.00 84 1006.4
20260506004559 11 79 0.0 1.6 0.00 0.08 0.00 84 1006.4
20260506003042 11 67 0.0 4.8 0.00 0.08 0.00 83 1006.5
20260506001544 12 72 0.0 0.0 0.00 0.08 0.00 82 1006.6
20260505234543 12 90 0.0 3.2 0.00 0.08 0.00 81 1006.8
20260505233033 12 61 0.0 4.8 0.00 0.08 0.00 79 1006.9
20260505231530 13 85 0.0 3.2 0.00 0.08 0.00 78 1007.1
20260505230049 13 85 1.6 4.8 0.00 0.08 0.00 76 1007.1
20260505224536 13 227 0.0 8.0 0.00 0.08 0.00 76 1007.2
20260505223026 13 179 0.0 8.0 0.00 0.08 0.00 77 1007.2
20260505221522 13 218 0.0 0.0 0.00 0.08 0.00 78 1007.3
20260505220019 13 218 0.0 4.8 0.00 0.08 0.00 77 1007.3
20260505214522 13 213 0.0 6.4 0.00 0.08 0.08 77 1007.2
20260505213019 13 204 1.6 11.3 0.00 0.08 0.08 77 1007.2
20260505211526 13 172 1.6 9.7 0.00 0.08 0.08 79 1007.2
20260505210017 13 143 3.2 12.9 0.00 0.08 0.08 80 1007.2
20260505204515 13 175 3.2 14.5 0.00 0.08 0.08 80 1007.3
20260505203015 14 172 3.2 11.3 0.00 0.08 0.08 80 1007.2
20260505201514 14 120 3.2 14.5 0.00 0.08 0.08 81 1007.1
20260505200014 14 220 1.6 9.7 0.00 0.08 0.08 81 1007.0
20260505194515 14 151 4.8 11.3 0.00 0.08 0.08 80 1006.9
20260505193015 14 182 6.4 16.1 0.00 0.08 0.08 79 1006.8
20260505191512 15 212 3.2 14.5 0.00 0.08 0.08 78 1006.7
20260505190014 15 146 3.2 12.9 0.00 0.08 0.08 79 1006.6
20260505184517 15 227 3.2 14.5 0.00 0.08 0.08 79 1006.4
20260505183011 15 192 1.6 14.5 0.00 0.08 0.08 78 1006.3
20260505181510 16 239 3.2 19.3 0.00 0.08 0.08 77 1006.4
20260505180011 16 208 4.8 11.3 0.00 0.08 0.08 73 1006.2
20260505174508 16 118 1.6 11.3 0.00 0.10 0.08 71 1006.1
20260505173008 17 212 3.2 14.5 0.00 0.10 0.08 70 1006.0
20260505171507 16 192 4.8 17.7 0.00 0.10 0.08 71 1006.1
20260505170009 16 162 6.4 16.1 0.00 0.10 0.08 70 1006.2
20260505164505 16 201 4.8 14.5 0.00 0.10 0.08 72 1006.1
20260505163004 16 159 8.0 17.7 0.00 0.10 0.08 76 1006.2
20260505161504 15 159 1.6 14.5 0.00 0.10 0.08 82 1005.9
20260505153003 15 208 4.8 9.7 0.08 0.10 0.08 86 1006.2
20260505151502 15 224 1.6 11.3 0.08 0.10 0.08 85 1006.1
20260505124552 18 321 0.0 3.2 0.00 0.03 0.00 68 1006.4
20260505123050 17 336 0.0 0.0 0.00 0.03 0.00 71 1006.5
20260505121610 17 255 0.0 0.0 0.00 0.03 0.00 73 1006.6
20260505120033 16 227 0.0 0.0 0.00 0.03 0.00 74 1006.7
20260505114534 16 254 0.0 0.0 0.00 0.03 0.00 74 1006.9
20260505113031 16 222 0.0 0.0 0.00 0.03 0.00 75 1007.0
20260505111535 16 272 0.0 0.0 0.00 0.03 0.00 75 1007.1
20260505101524 16 324 0.0 0.0 0.00 0.03 0.00 78 1007.2
20260505100034 16 322 0.0 0.0 0.00 0.03 0.00 79 1007.2
20260505094523 16 321 0.0 0.0 0.00 0.03 0.00 77 1007.2
20260505093028 16 345 0.0 0.0 0.00 0.03 0.00 77 1007.1
20260505091527 16 347 0.0 0.0 0.00 0.03 0.00 78 1007.3
20260505090020 16 329 0.0 0.0 0.00 0.03 0.00 83 1007.5
20260505084518 16 324 0.0 0.0 0.00 0.03 0.00 83 1007.6
20260505083015 15 321 0.0 0.0 0.00 0.03 0.00 83 1007.7
20260505081515 15 319 0.0 0.0 0.00 0.03 0.00 84 1007.8
20260505080011 15 319 0.0 0.0 0.00 0.03 0.00 86 1007.9
20260505074509 15 334 0.0 0.0 0.00 0.03 0.00 87 1007.9
20260505073003 14 337 0.0 0.0 0.00 0.03 0.00 89 1008.0
20260505071600 13 225 0.0 0.0 0.00 0.03 0.00 89 1008.1
20260505070104 13 225 0.0 0.0 0.00 0.03 0.00 91 1008.2
20260505064607 13 225 0.0 0.0 0.00 0.03 0.00 91 1008.3
20260505063053 12 225 0.0 0.0 0.00 0.03 0.00 91 1008.3
20260505061551 12 225 0.0 0.0 0.00 0.03 0.00 91 1008.5
20260505060049 12 213 0.0 0.0 0.00 0.03 0.00 91 1008.5
20260505054614 12 218 0.0 0.0 0.00 0.03 0.00 91 1008.6
20260505053050 12 221 0.0 0.0 0.00 0.03 0.00 90 1008.5
20260505051546 12 234 0.0 0.0 0.00 0.03 0.00 90 1008.4